Macae, Brazil

7:17 PM -03 on August 20, 2017 (GMT -0300)
Macae

Weather History for SBME - March, 2014

Change the Weather History Date:

Monday, March 31, 2014

  Actual Average Record
Temperature  
Mean Temperature 84 °F -  
Max Temperature 95 °F 79 °F 102 °F (2015)
Min Temperature 73 °F 66 °F 68 °F (1997)
Cooling Degree Days 19    
Growing Degree Days 34 (Base 50)    
Moisture  
Dew Point 75 °F    
Average Humidity 82    
Maximum Humidity 100    
Minimum Humidity 49    
Precipitation  
Precipitation 0.00 in - - ()
Sea Level Pressure  
Sea Level Pressure 29.96 in    
Wind  
Wind Speed 5 mph ()    
Max Wind Speed 13 mph    
Max Gust Speed -    
Visibility 6.2 miles    
Events      
Averages and records for this station are not official NWS values.
T = Trace of Precipitation, MM = Missing Value Source: Averaged Metar Reports

Daily Weather History Graph

Daily Weather History Graph

Search for Another Location

Airport or City:

Trip Planner

Search our weather history database for the weather conditions in past years. The results will help you decide how hot, cold, wet, or windy it might be!

Date:

Astronomy

Mar. 31, 2014 Rise Set
Actual Time 5:54 AM -03 5:47 PM -03
Civil Twilight 5:32 AM -03 6:09 PM -03
Nautical Twilight 5:06 AM -03 6:35 PM -03
Astronomical Twilight 4:40 AM -03 7:01 PM -03
Moon 6:33 AM -03 (3/31) 6:26 PM -03 (3/31)
Length of Visible Light 12h 37m
Length of Day
11h 52m
New Moon, 1% of the Moon is Illuminated
Mar 31
New Moon
Apr 7
First Quarter
Apr 15
Full
Apr 22
Last Quarter
Apr 29
New

Hourly Weather History & Observations

Time (-03) Temp. Heat Index Dew Point Humidity Pressure Visibility Wind Dir Wind Speed Gust Speed Precip Events Conditions
12:00 AM 75.2 °F - 73.4 °F 94% 30.01 in - NNE 2.3 mph - N/A   Clear
1:00 AM 75.2 °F - 73.4 °F 94% 30.01 in - East 2.3 mph - N/A   Clear
2:00 AM 73.4 °F - 73.4 °F 100% 29.98 in - NE 2.3 mph - N/A   Clear
3:00 AM 75.2 °F - 75.2 °F 100% 29.95 in - ENE 5.8 mph - N/A   Clear
4:00 AM 73.4 °F - 73.4 °F 100% 29.95 in - NNE 2.3 mph - N/A   Clear
5:00 AM 73.4 °F - 73.4 °F 100% 29.95 in - NW 2.3 mph - N/A   Clear
6:00 AM 73.4 °F - 73.4 °F 100% 29.95 in 6.2 mi North 2.3 mph - N/A   Partly Cloudy
7:00 AM 77.0 °F - 77.0 °F 100% 29.98 in 6.2 mi NE 4.6 mph - N/A   Partly Cloudy
8:00 AM 89.6 °F 99.8 °F 75.2 °F 62% 30.01 in 6.2 mi ENE 9.2 mph - N/A   Partly Cloudy
9:00 AM 87.8 °F 97.6 °F 75.2 °F 66% 30.01 in 6.2 mi NE 9.2 mph - N/A   Scattered Clouds
10:00 AM 93.2 °F 107.2 °F 77.0 °F 59% 30.01 in 6.2 mi ENE 9.2 mph - N/A   Scattered Clouds
11:00 AM 95.0 °F 109.7 °F 77.0 °F 56% 29.98 in 6.2 mi NNE 6.9 mph - N/A   Scattered Clouds
12:00 PM 95.0 °F 104.5 °F 73.4 °F 49% 29.95 in 6.2 mi NE 9.2 mph - N/A   Scattered Clouds
1:00 PM 91.4 °F 105.1 °F 77.0 °F 63% 29.92 in - East 6.9 mph - N/A   Clear
2:00 PM 87.8 °F 97.6 °F 75.2 °F 66% 29.92 in - East 9.2 mph - N/A   Clear
3:00 PM 84.2 °F 92.3 °F 75.2 °F 74% 29.89 in 6.2 mi East 12.7 mph - N/A   Partly Cloudy
4:00 PM 82.4 °F 88.2 °F 73.4 °F 74% 29.89 in 6.2 mi East 12.7 mph - N/A   Partly Cloudy
5:00 PM 80.6 °F 85.4 °F 73.4 °F 79% 29.89 in 6.2 mi East 12.7 mph - N/A   Partly Cloudy
6:00 PM 78.8 °F - 73.4 °F 83% 29.92 in 6.2 mi ENE 6.9 mph - N/A   Scattered Clouds
7:00 PM 78.8 °F - 75.2 °F 89% 29.95 in 6.2 mi East 5.8 mph - N/A   Partly Cloudy
8:00 PM 77.0 °F - 75.2 °F 94% 29.98 in 6.2 mi NE 4.6 mph - N/A   Partly Cloudy
9:00 PM 77.0 °F - 73.4 °F 89% 30.01 in - ENE 4.6 mph - N/A   Clear
10:00 PM 75.2 °F - 73.4 °F 94% 30.01 in - NNE 2.3 mph - N/A   Clear
11:00 PM 75.2 °F - 73.4 °F 94% 30.01 in - North 2.3 mph - N/A   Clear